Weather History for Cloquet, MN

Change the Weather History Date:

Tuesday, February 12, 2013

  Actual Average Record
Temperature  
Mean Temperature 19 °F -  
Max Temperature 30 °F 23 °F 42 °F (2005)
Min Temperature 8 °F 6 °F -13 °F (2000)
Degree Days  
Heating Degree Days 46    
Moisture  
Dew Point 13 °F    
Average Humidity 72    
Maximum Humidity 92    
Minimum Humidity 55    
Precipitation  
Precipitation 0.00 in - - ()
Sea Level Pressure  
Sea Level Pressure 29.80 in    
Wind  
Wind Speed 7 mph (SW)    
Max Wind Speed 15 mph    
Max Gust Speed 18 mph    
Visibility 10 miles    
Events Snow    
Averages and records for this station are not official NWS values.
T = Trace of Precipitation, MM = Missing Value Source: NWS Daily Summary

Daily Weather History Graph

Daily Weather History Graph

Search for Another Location

Airport:

Trip Planner

Search our weather history database for the weather conditions in past years. The results will help you decide how hot, cold, wet, or windy it might be!

Date:

Astronomy

Feb. 12, 2013 Rise Set
Actual Time 7:18 AM CST 5:30 PM CST
Civil Twilight 6:46 AM CST 6:02 PM CST
Nautical Twilight 6:11 AM CST 6:37 PM CST
Astronomical Twilight 5:36 AM CST 7:13 PM CST
Moon 8:02 AM CST (2/12) 8:47 PM CST (2/12)
Length of Visible Light 11h 15m
Length of Day
10h 12m
Waxing Crescent, 7% of the Moon is Illuminated
Feb 12
Waxing Crescent
Feb 17
First Quarter
Feb 25
Full
Mar 4
Last Quarter
Mar 11
New

Hourly Weather History & Observations

Time (CST) Temp. Windchill Dew Point Humidity Pressure Visibility Wind Dir Wind Speed Gust Speed Precip Events Conditions
12:15 AM 19.4 °F 11.5 °F 12.2 °F 74% 29.91 in 10.0 mi WSW 5.8 mph - N/A Snow Light Snow
12:36 AM 17.6 °F 9.3 °F 12.2 °F 79% 29.91 in 10.0 mi WSW 5.8 mph - N/A Snow Light Snow
12:56 AM 17.6 °F 7.3 °F 12.2 °F 79% 29.91 in 7.0 mi WSW 8.1 mph - N/A Snow Light Snow
1:15 AM 17.6 °F 8.2 °F 12.2 °F 79% 29.90 in 10.0 mi WSW 6.9 mph - N/A Snow Light Snow
1:36 AM 17.6 °F 8.2 °F 12.2 °F 79% 29.90 in 10.0 mi West 6.9 mph - N/A Snow Light Snow
1:56 AM 17.6 °F 7.3 °F 12.2 °F 79% 29.90 in 10.0 mi WSW 8.1 mph - N/A   Mostly Cloudy
2:15 AM 15.8 °F 6.1 °F 10.4 °F 79% 29.89 in 10.0 mi WSW 6.9 mph - N/A   Scattered Clouds
2:36 AM 14.0 °F 2.0 °F 8.6 °F 79% 29.89 in 10.0 mi WSW 9.2 mph - N/A   Clear
2:56 AM 12.2 °F 1.7 °F 8.6 °F 85% 29.89 in 10.0 mi WSW 6.9 mph - N/A   Clear
3:16 AM 10.4 °F 0.8 °F 6.8 °F 85% 29.88 in 10.0 mi WSW 5.8 mph - N/A   Clear
3:36 AM 10.4 °F 0.8 °F 6.8 °F 85% 29.88 in 10.0 mi WSW 5.8 mph - N/A   Clear
3:56 AM 10.4 °F 0.8 °F 6.8 °F 85% 29.89 in 10.0 mi West 5.8 mph - N/A   Clear
4:16 AM 8.6 °F -1.3 °F 6.8 °F 92% 29.89 in 10.0 mi WSW 5.8 mph - N/A   Clear
4:36 AM 8.6 °F -1.3 °F 6.8 °F 92% 29.90 in 10.0 mi WSW 5.8 mph - N/A   Clear
4:55 AM 10.4 °F 0.8 °F 6.8 °F 85% 29.90 in 10.0 mi WSW 5.8 mph - N/A   Scattered Clouds
5:16 AM 10.4 °F -0.4 °F 6.8 °F 85% 29.90 in 10.0 mi WSW 6.9 mph - N/A Snow Light Snow
5:36 AM 10.4 °F 4.0 °F 6.8 °F 85% 29.89 in 7.0 mi WSW 3.5 mph - N/A Snow Light Snow
5:55 AM 10.4 °F 2.2 °F 6.8 °F 85% 29.89 in 10.0 mi SW 4.6 mph - N/A Snow Light Snow
6:16 AM 12.2 °F 6.1 °F 6.8 °F 79% 29.89 in 10.0 mi SW 3.5 mph - N/A Snow Light Snow
6:36 AM 12.2 °F - 8.6 °F 85% 29.89 in 7.0 mi Calm Calm - N/A Snow Light Snow
6:56 AM 10.4 °F 2.2 °F 6.8 °F 85% 29.87 in 10.0 mi SSE 4.6 mph - N/A   Overcast
7:16 AM 10.4 °F 4.0 °F 6.8 °F 85% 29.87 in 10.0 mi South 3.5 mph - N/A   Overcast
7:36 AM 12.2 °F 6.1 °F 8.6 °F 85% 29.87 in 10.0 mi South 3.5 mph - N/A   Overcast
7:56 AM 12.2 °F 4.3 °F 8.6 °F 85% 29.87 in 10.0 mi South 4.6 mph - N/A   Overcast
8:16 AM 12.2 °F 4.3 °F 8.6 °F 85% 29.86 in 10.0 mi South 4.6 mph - N/A   Overcast
8:35 AM 14.0 °F 5.1 °F 10.4 °F 86% 29.86 in 10.0 mi South 5.8 mph - N/A   Overcast
8:56 AM 15.8 °F 6.1 °F 10.4 °F 79% 29.85 in 10.0 mi South 6.9 mph - N/A   Overcast
9:16 AM 15.8 °F 4.2 °F 12.2 °F 86% 29.83 in 10.0 mi South 9.2 mph - N/A   Overcast
9:36 AM 17.6 °F 5.7 °F 12.2 °F 79% 29.82 in 10.0 mi South 10.4 mph 18.4 mph N/A   Scattered Clouds
9:56 AM 19.4 °F 5.5 °F 12.2 °F 74% 29.82 in 10.0 mi SSW 15.0 mph - N/A   Scattered Clouds
10:16 AM 19.4 °F 6.6 °F 12.2 °F 74% 29.82 in 10.0 mi SSW 12.7 mph 17.3 mph N/A   Scattered Clouds
10:36 AM 19.4 °F 6.0 °F 12.2 °F 74% 29.82 in 10.0 mi SSW 13.8 mph - N/A   Mostly Cloudy
10:55 AM 21.2 °F 8.9 °F 12.2 °F 68% 29.81 in 10.0 mi SSW 12.7 mph 18.4 mph N/A   Overcast
11:16 AM 21.2 °F 10.1 °F 14.0 °F 74% 29.82 in 10.0 mi SW 10.4 mph - N/A   Mostly Cloudy
11:36 AM 21.2 °F 9.5 °F 14.0 °F 74% 29.80 in 10.0 mi SW 11.5 mph 18.4 mph N/A   Scattered Clouds
11:56 AM 23.0 °F 13.1 °F 14.0 °F 68% 29.79 in 10.0 mi SSW 9.2 mph - N/A   Mostly Cloudy
12:16 PM 23.0 °F 12.4 °F 15.8 °F 74% 29.78 in 10.0 mi South 10.4 mph - N/A   Overcast
12:36 PM 24.8 °F 14.0 °F 15.8 °F 69% 29.76 in 10.0 mi South 11.5 mph - N/A   Overcast
12:56 PM 24.8 °F 15.3 °F 15.8 °F 69% 29.76 in 10.0 mi SSW 9.2 mph - N/A   Mostly Cloudy
1:16 PM 26.6 °F 16.2 °F 15.8 °F 64% 29.75 in 10.0 mi SSW 11.5 mph - N/A   Scattered Clouds
1:35 PM 26.6 °F 18.2 °F 15.8 °F 64% 29.74 in 10.0 mi SW 8.1 mph 16.1 mph N/A   Clear
1:56 PM 26.6 °F 16.8 °F 15.8 °F 64% 29.73 in 10.0 mi SSW 10.4 mph - N/A   Scattered Clouds
2:16 PM 28.4 °F 18.0 °F 15.8 °F 59% 29.73 in 10.0 mi SW 12.7 mph - N/A   Scattered Clouds
2:35 PM 28.4 °F 19.1 °F 15.8 °F 59% 29.73 in 10.0 mi SSW 10.4 mph - N/A   Scattered Clouds
2:56 PM 28.4 °F 19.1 °F 15.8 °F 59% 29.73 in 10.0 mi SSW 10.4 mph - N/A   Clear
3:16 PM 28.4 °F 19.7 °F 15.8 °F 59% 29.73 in 10.0 mi SSW 9.2 mph 16.1 mph N/A   Clear
3:36 PM 30.2 °F 21.9 °F 15.8 °F 55% 29.73 in 10.0 mi SSW 9.2 mph - N/A   Clear
3:56 PM 30.2 °F 21.9 °F 15.8 °F 55% 29.74 in 10.0 mi SW 9.2 mph - N/A   Clear
4:16 PM 30.2 °F 21.3 °F 15.8 °F 55% 29.74 in 10.0 mi SW 10.4 mph - N/A   Clear
4:36 PM 30.2 °F 22.6 °F 15.8 °F 55% 29.74 in 10.0 mi WSW 8.1 mph - N/A   Clear
4:56 PM 30.2 °F 23.4 °F 15.8 °F 55% 29.73 in 10.0 mi SW 6.9 mph - N/A   Clear
5:16 PM 30.2 °F 22.6 °F 15.8 °F 55% 29.73 in 10.0 mi WSW 8.1 mph - N/A   Clear
5:36 PM 28.4 °F 21.2 °F 15.8 °F 59% 29.73 in 10.0 mi SW 6.9 mph - N/A   Clear
5:56 PM 28.4 °F 23.3 °F 15.8 °F 59% 29.74 in 10.0 mi WSW 4.6 mph - N/A   Clear
6:16 PM 26.6 °F 20.0 °F 15.8 °F 64% 29.74 in 10.0 mi WSW 5.8 mph - N/A   Scattered Clouds
6:36 PM 26.6 °F 20.0 °F 15.8 °F 64% 29.74 in 10.0 mi WSW 5.8 mph - N/A   Mostly Cloudy
6:56 PM 26.6 °F 20.0 °F 15.8 °F 64% 29.73 in 10.0 mi WSW 5.8 mph - N/A   Overcast
7:15 PM 26.6 °F 19.1 °F 15.8 °F 64% 29.72 in 10.0 mi SW 6.9 mph - N/A   Overcast
7:36 PM 26.6 °F 18.2 °F 15.8 °F 64% 29.72 in 10.0 mi SW 8.1 mph - N/A   Overcast
7:56 PM 26.6 °F 17.5 °F 15.8 °F 64% 29.72 in 10.0 mi SW 9.2 mph - N/A   Scattered Clouds
8:15 PM 26.6 °F 18.2 °F 15.8 °F 64% 29.71 in 10.0 mi SW 8.1 mph - N/A   Scattered Clouds
8:36 PM 26.6 °F 18.2 °F 15.8 °F 64% 29.70 in 10.0 mi SW 8.1 mph - N/A   Mostly Cloudy
8:56 PM 26.6 °F 19.1 °F 15.8 °F 64% 29.70 in 10.0 mi SW 6.9 mph - N/A   Overcast
9:16 PM 26.6 °F 19.1 °F 15.8 °F 64% 29.70 in 10.0 mi WSW 6.9 mph - N/A   Overcast
9:36 PM 26.6 °F 19.1 °F 15.8 °F 64% 29.70 in 10.0 mi SW 6.9 mph - N/A   Mostly Cloudy
9:56 PM 24.8 °F 16.1 °F 15.8 °F 69% 29.69 in 10.0 mi SW 8.1 mph - N/A   Overcast
10:16 PM 24.8 °F 19.1 °F 15.8 °F 69% 29.69 in 10.0 mi WSW 4.6 mph - N/A   Overcast
10:36 PM 24.8 °F 16.9 °F 15.8 °F 69% 29.69 in 10.0 mi WSW 6.9 mph - N/A   Overcast
10:56 PM 24.8 °F 17.9 °F 15.8 °F 69% 29.69 in 10.0 mi WSW 5.8 mph - N/A   Overcast
11:16 PM 24.8 °F 16.9 °F 17.6 °F 74% 29.69 in 10.0 mi WSW 6.9 mph - N/A   Overcast
11:36 PM 26.6 °F 19.1 °F 17.6 °F 69% 29.68 in 10.0 mi WSW 6.9 mph - N/A   Overcast
11:56 PM 26.6 °F 20.0 °F 17.6 °F 69% 29.68 in 10.0 mi WSW 5.8 mph - N/A   Overcast